Location: Unspecified
(44.4377°N, 88.0525°W)
Time: 04:39:01
(UTC-05:00)

ISS - Visible Passes

Search period start: 28 May 2018 00:00
Search period end: 07 June 2018 00:00
Orbit: 402 x 407 km, 51.6° (Epoch: 28 May)

Date Brightness Start Highest point End Pass type
(mag) Time Alt. Az. Time Alt. Az. Time Alt. Az.
28 May -2.4 00:16:25 10° NW 00:18:50 37° NNW 00:18:50 37° NNW visible
28 May -1.4 21:47:29 10° WNW 21:50:09 22° N 21:52:48 10° NE visible
28 May -2.2 23:24:15 10° NW 23:27:16 33° NNE 23:28:12 27° NE visible
29 May -0.9 01:00:41 10° WNW 01:00:50 11° WNW 01:00:50 11° WNW visible
29 May -1.8 22:32:02 10° NW 22:34:52 26° NNE 22:37:36 11° ENE visible
30 May -2.2 00:08:24 10° WNW 00:10:14 30° WNW 00:10:14 30° WNW visible
30 May -1.6 21:39:44 10° NW 21:42:26 23° N 21:45:08 10° ENE visible
30 May -3.3 23:16:11 10° NW 23:19:24 54° NNE 23:19:39 52° NE visible
31 May -2.5 22:23:59 10° NW 22:27:03 37° NNE 22:29:06 18° E visible
01 Jun -1.7 00:00:28 10° WNW 00:01:44 20° W 00:01:44 20° W visible
01 Jun -2.0 21:31:45 10° NW 21:34:39 28° NNE 21:37:32 10° ENE visible
01 Jun -3.8 23:08:07 10° WNW 23:11:12 72° WSW 23:11:12 72° WSW visible
02 Jun -3.6 22:15:50 10° NW 22:19:05 64° NNE 22:20:41 27° ESE visible
02 Jun -1.1 23:52:53 10° W 23:53:19 12° W 23:53:19 12° W visible
03 Jun -2.8 21:23:35 10° NW 21:26:44 41° NNE 21:29:51 10° E visible
03 Jun -2.8 23:00:10 10° WNW 23:02:50 33° SW 23:02:50 33° SW visible
04 Jun -3.7 22:07:43 10° WNW 22:10:57 62° SW 22:12:23 29° SE visible
05 Jun -3.7 21:15:22 10° WNW 21:18:39 76° NNE 21:21:55 10° ESE visible
05 Jun -1.6 22:52:43 10° W 22:54:36 15° SW 22:54:36 15° SW visible
06 Jun -2.4 21:59:47 10° WNW 22:02:37 27° SW 22:04:13 18° S visible
